Regional Weather Roundup
Issued by NWS

Home | Current Version | Previous Version | Graphics & Text | Print | Product List | Glossary On
Versions: 1 2 3 4 5 6 7 8 9 10 11 12 13 14 15 16 17 18 19 20 21 22 23 24 25 26 27 28 29 30 31 32 33 34 35 36 37 38 39 40 41 42 43 44 45 46 47 48 49 50
000
ASUS43 KDMX 272107
RWRIA

WEATHER ROUNDUP FOR IOWA
NATIONAL WEATHER SERVICE DES MOINES IA
400 PM CDT MON JUL 27 2015

NOTE: "FAIR" INDICATES FEW OR NO CLOUDS BELOW 12,000 FEET WITH NO
SIGNIFICANT WEATHER AND/OR OBSTRUCTIONS TO VISIBILITY.

* - THESE STATIONS ARE NOT NWS STATIONS...THUS NOT UNDER NWS
QUALITY CONTROL.  THEY ALSO DO NOT REPORT WEATHER SUCH
AS PRECIPITATION OR FOG.

IAZ001>003-012>014-020>022-031>034-043>046-272200-
   NORTHWEST IOWA

CITY           SKY/WX    TMP DP  RH WIND       PRES   REMARKS
CARROLL *      SUNNY     77  72  83 SE12      29.91S
CHEROKEE *     SUNNY     84  73  70 S17G23    29.87S HX  91
DENISON *      SUNNY     81  72  74 SE16G22   29.88S HX  84
LE MARS *      SUNNY     84  73  70 S17G23    29.85F HX  91
ORANGE CITY *  SUNNY     82  70  65 S14G20    29.86F HX  86
SHELDON *      SUNNY     84  73  70 VRB7G14   29.85F HX  91
SIOUX CITY     MOSUNNY   85  74  69 S16G23    29.85F HX  92
SPENCER        SUNNY     85  69  58 S12       29.87F HX  89
STORM LAKE *   SUNNY     82  70  65 S15G23    29.89S HX  86
$$

IAZ055>058-069>071-079>083-090>094-272200-
   SOUTHWEST IOWA

CITY           SKY/WX    TMP DP  RH WIND       PRES   REMARKS
ATLANTIC *     SUNNY     79  72  78 E18G25    29.91F HX  82
AUDUBON *      MOSUNNY   77  72  83 SE15      29.94S
CLARINDA *     MOSUNNY   88  81  79 VRB6      29.90F HX 105
COUNCIL BLFS * SUNNY     88  75  66 SE13      29.88F HX  97
CRESTON *      CLOUDY    73  70  88 NE17      29.93F
HARLAN  *      MOSUNNY   79  79 100 SE15G22   29.94S HX  83
LAMONI         CLOUDY    75  70  84 NE18      29.96R
RED OAK *      SUNNY     84  77  79 NE8       29.89F HX  94
SHENANDOAH *   MOSUNNY   86  77  74 SE7       29.88F HX  97
$$

IAZ047>049-059>061-072>074-084-272200-
   CENTRAL IOWA

CITY           SKY/WX    TMP DP  RH WIND       PRES   REMARKS
AMES           LGT RAIN  71  68  90 E6        29.93F
ANKENY *       HVY RAIN  72  70  94 E13       29.93F
CHARITON *     HVY RAIN  72  70  94 E14       29.95F
DES MOINES     TSTM      74  68  81 S12       29.97R
GRINNELL*      HVY RAIN  70  68  94 NE5       30.00F
KNOXVILLE *    CLOUDY    73  70  88 NW5G12    29.97R
MARSHALLTOWN   LGT RAIN  71  69  93 S9        29.96F
PELLA *        LGT RAIN  70  70 100 NE8       29.95F
PERRY *          N/A     73  70  88 S17       29.96R
$$

IAZ004>006-015-016-023>025-035-036-272200-
   NORTH CENTRAL IOWA

CITY           SKY/WX    TMP DP  RH WIND       PRES   REMARKS
ALGONA *       SUNNY     79  68  69 S7G14     29.90R HX  81
CLARION *      SUNNY     73  68  83 SE13      29.89F
ESTHERVILLE    MOSUNNY   82  69  64 SE13      29.89F HX  85
FORT DODGE *   CLOUDY    73  64  73 SE12      29.88F
MASON CITY     CLOUDY    77  74  90 SE16      29.93F
FOREST CITY *  SUNNY     81  70  69 SE16G22   29.93R HX  84
IOWA FALLS *     N/A     73  68  83 SE9       29.95F
$$

IAZ007>011-017>019-026>030-037>042-050>054-066-272200-
   NORTHEAST IOWA

CITY           SKY/WX    TMP DP  RH WIND       PRES   REMARKS
CEDAR RAPIDS   CLOUDY    81  76  84 CALM      29.98S HX  87
CHARLES CITY * CLOUDY    81  75  83 S10G18    29.97F HX  86
CLINTON *      CLOUDY    86  72  62 E10       30.00F HX  92
DECORAH *      MOSUNNY   82  72  69 S9G15     29.97F HX  87
DUBUQUE        CLOUDY    83  68  60 SE6       30.00F HX  86
MONTICELLO *   SUNNY     82  72  69 SE7       29.98F HX  87
OELWEIN *      SUNNY     81  72  74 SE10      29.99F HX  84
WATERLOO       CLOUDY    82  73  74 S14       29.96F HX  87
$$

IAZ064-065-067-068-078-272200-
   EAST CENTRAL IOWA

CITY           SKY/WX    TMP DP  RH WIND       PRES   REMARKS
DAVENPORT      CLOUDY    84  71  65 E12       29.98F HX  89
IOWA CITY      CLOUDY    84  72  67 E5        29.98S HX  89
MT. PLEASANT * PTSUNNY   86  70  58 E5        29.95S HX  90
MUSCATINE *    MOSUNNY   86  72  62 VRB5      29.96R HX  92
QUAD CITIES    PTSUNNY   86  72  62 SE10      29.96F HX  92
$$

IAZ062-063-075>077-085>089-095>099-272200-
   SOUTHEAST IOWA

CITY           SKY/WX    TMP DP  RH WIND       PRES   REMARKS
BURLINGTON     PTSUNNY   87  74  64 E8        29.95F HX  95
FAIRFIELD *    SUNNY     82  73  74 NE7       29.95F HX  88
FORT MADISON * MOSUNNY   84  79  84 E8        29.95F HX  96
KEOKUK *       SUNNY     88  75  66 E7        29.93S HX  97
OSKALOOSA *    RAIN      73  70  88 N13G21    30.00R
CENTERVILLE *  HVY RAIN  70  70 100 W24G35    30.05R VSB 1
OTTUMWA        TSTM      71  70  96 W13       29.95F FOG
WASHINGTON *   SUNNY     82  75  78 NE6       29.98S HAZE    HX  89
$$

ABBREVIATIONS USED IN REMARKS
   TC - TEMPERATURES IN CELSIUS
  WCI - WIND CHILL INDEX
   HX - HEAT INDEX
  VSB - VISIBILITY
$$




USA.gov is the U.S. government's official web portal to all federal, state and local government web resources and services.